Location: Little Italy
(37.8008°N, 122.4108°W)
Time: 08:15:49
(UTC+00:00)

Cosmos 1703 - Pass Details

Date: 29 October 2020
Orbit: 525 x 538 km, 82.5° (Epoch: 02 December)

Event Time Altitude Azimuth Distance (km) Brightness Sun altitude
Rises 13:45:32 0° 180° (S) 2,642 6.9 -9.9°
Reaches altitude 10° 13:47:40 10° 177° (S) 1,759 6.1 -9.5°
Maximum altitude 13:51:30 66° 95° (E) 577 3.7 -8.7°
Drops below altitude 10° 13:55:22 10° 13° (NNE) 1,779 6.0 -8.0°
Sets 13:57:32 0° 11° (N) 2,675 6.8 -7.6°
